Content
SEND FEEDBACK

Daily
Averages
Monthly
Summary
United States of America

MERIZO, GUAM


Home > North America > United States > Guam
Elevation: 10 feet     Latitude: 13 14N     Longitude: 144 39E

WEATHER
 
SELECT A DAY
Number of Records: 342,038;   Date Range: 1/1/95 - 7/29/14
 
SHARE

PRINT THIS DATA

[ ← Previous Day ]
WEATHER ALMANAC - MARCH 27, 2013
[ Next Day → ]
[ °C ]   °F
Weather ElementAverageHighLow
Temperature78.7 °F84.6 °F (11:55 am)77 °F (12:22 am)
Dewpoint72.1 °F73.4 °F (12:11 am)71.4 °F (3:55 am)
Humidity80.2 %89 % (12:22 am)66 % (12:55 pm)
Barometer29.86 in29.90 in (8:28 am)29.82 in (2:55 pm)
Wind Speed15.6 mph20.7 mph (12:55 pm)
Wind Gust27.6 mph (12:55 pm)
Weather ElementAverage
Visibility9.9 mi
Wind DirectionENE (67.9 °)

Weather ElementTotal
Precipitation---
Cooling Degree Days15.8 (Base 65)
Growing Degree Days30.8 (Base 50)
Averaged from 61 records on March 27, 2013
WEATHER CONDITIONS BREAKOUT
WIND DIRECTION BREAKOUT
WEATHER BY HOUR - MARCH 27, 2013
[ °C ]   °F
Local TimeTemperatureDewpointHumidityBarometerVisibilityWind DirectionWind SpeedGust SpeedPrecipitationEventsConditions
12:11 AM78.8 °F73.4 °F83 %29.87 in10.0 miENE (60°)12.7 mphMostly Cloudy
12:22 AM77.0 °F73.4 °F89 %29.87 in10.0 miENE (70°)13.8 mphMostly Cloudy
12:44 AM77.0 °F73.4 °F89 %29.86 in10.0 miENE (70°)15.0 mphScattered Clouds
12:45 AM77.0 °F73.4 °F89 %29.86 in10.0 miENE (70°)16.1 mphMostly Cloudy
12:55 AM77.7 °F73.4 °F86 %29.86 in10.0 miENE (70°)12.7 mphMostly Cloudy
1:00 AM77.0 °F73.4 °F89 %29.86 in10.0 miENE (70°)12.7 mphScattered Clouds
1:32 AM77.0 °F73.4 °F89 %29.85 in10.0 miENE (60°)15.0 mph21.9 mphMostly Cloudy
1:55 AM77.7 °F72.3 °F83 %29.84 in10.0 miENE (70°)13.8 mph19.6 mphMostly Cloudy
2:07 AM77.0 °F71.6 °F83 %29.84 in10.0 miENE (70°)13.8 mphScattered Clouds
2:55 AM77.5 °F72.1 °F83 %29.83 in10.0 miENE (70°)16.1 mphScattered Clouds
3:55 AM77.4 °F71.4 °F82 %29.83 in10.0 miEast (80°)15.0 mphScattered Clouds
4:39 AM77.0 °F71.6 °F83 %29.83 in10.0 miEast (80°)16.1 mphMostly Cloudy
4:41 AM77.0 °F71.6 °F83 %29.83 in10.0 miENE (70°)12.7 mphScattered Clouds
4:42 AM77.0 °F71.6 °F83 %29.83 in10.0 miENE (70°)13.8 mphMostly Cloudy
4:50 AM77.0 °F71.6 °F83 %29.83 in10.0 miENE (60°)13.8 mphScattered Clouds
4:51 AM77.0 °F71.6 °F83 %29.84 in10.0 miENE (70°)11.5 mphMostly Cloudy
4:55 AM77.4 °F71.8 °F83 %29.84 in10.0 miENE (70°)15.0 mph20.7 mphMostly Cloudy
5:19 AM77.0 °F71.6 °F83 %29.85 in10.0 miENE (60°)13.8 mphMostly Cloudy
5:23 AM77.0 °F71.6 °F83 %29.85 in10.0 miENE (70°)11.5 mphMostly Cloudy
5:34 AM77.0 °F71.6 °F83 %29.85 in10.0 miENE (60°)13.8 mph19.6 mphMostly Cloudy
5:36 AM77.0 °F71.6 °F83 %29.85 in10.0 miENE (70°)13.8 mph19.6 mphMostly Cloudy
5:55 AM77.4 °F72.3 °F84 %29.86 in10.0 miENE (70°)12.7 mphScattered Clouds
6:01 AM77.0 °F71.6 °F83 %29.86 in10.0 miENE (60°)12.7 mphRainLight Rain
6:11 AM77.0 °F71.6 °F83 %29.86 in10.0 miENE (70°)12.7 mphScattered Clouds
6:55 AM77.2 °F72.3 °F85 %29.87 in10.0 miENE (70°)13.8 mphPartly Cloudy
7:55 AM79.3 °F72.5 °F79 %29.88 in10.0 miENE (70°)16.1 mph20.7 mphScattered Clouds
8:18 AM78.8 °F73.4 °F83 %29.89 in10.0 miENE (70°)11.5 mphMostly Cloudy
8:28 AM80.6 °F73.4 °F79 %29.90 in10.0 miENE (70°)16.1 mph21.9 mphScattered Clouds
8:55 AM80.6 °F72.0 °F75 %29.90 in10.0 miEast (80°)13.8 mph23.0 mphScattered Clouds
9:55 AM82.9 °F71.8 °F69 %29.90 in10.0 miEast (80°)16.1 mph26.5 mphPartly Cloudy
10:55 AM82.9 °F72.9 °F71 %29.89 in10.0 miENE (70°)16.1 mphPartly Cloudy
11:55 AM84.6 °F73.2 °F69 %29.87 in10.0 miENE (70°)15.0 mph21.9 mphScattered Clouds
12:55 PM84.0 °F71.8 °F66 %29.86 in10.0 miENE (70°)20.7 mph27.6 mphMostly Cloudy
1:55 PM84.2 °F72.1 °F67 %29.84 in10.0 miENE (60°)17.3 mphClear
2:55 PM83.5 °F72.9 °F70 %29.82 in10.0 miENE (60°)17.3 mphClear
3:55 PM83.3 °F72.9 °F71 %29.83 in10.0 miENE (60°)19.6 mphPartly Cloudy
4:55 PM80.8 °F72.9 °F77 %29.83 in10.0 miENE (60°)16.1 mphScattered Clouds
5:04 PM80.6 °F73.4 °F79 %29.83 in10.0 miENE (60°)16.1 mphMostly Cloudy
5:08 PM80.6 °F71.6 °F74 %29.83 in10.0 miENE (60°)18.4 mphMostly Cloudy
5:55 PM80.4 °F72.3 °F76 %29.84 in10.0 miENE (60°)17.3 mphPartly Cloudy
6:55 PM78.6 °F71.8 °F79 %29.85 in10.0 miENE (70°)17.3 mph23.0 mphScattered Clouds
7:19 PM78.8 °F71.6 °F78 %29.86 in10.0 miENE (60°)17.3 mph24.2 mphMostly Cloudy
7:22 PM78.8 °F71.6 °F78 %29.86 in10.0 miENE (60°)17.3 mphScattered Clouds
7:55 PM78.1 °F71.8 °F81 %29.87 in10.0 miENE (60°)15.0 mphPartly Cloudy
8:55 PM77.9 °F72.0 °F82 %29.88 in10.0 miENE (70°)17.3 mphClear
9:20 PM78.8 °F71.6 °F78 %29.88 in10.0 miENE (60°)16.1 mphMostly Cloudy
9:34 PM78.8 °F71.6 °F78 %29.88 in10.0 miENE (60°)15.0 mphScattered Clouds
9:44 PM78.8 °F71.6 °F78 %29.88 in10.0 miENE (70°)16.1 mphMostly Cloudy
9:53 PM78.8 °F71.6 °F78 %29.88 in10.0 miENE (70°)18.4 mphScattered Clouds
9:55 PM78.3 °F71.8 °F80 %29.88 in10.0 miENE (70°)16.1 mphScattered Clouds
10:49 PM78.8 °F71.6 °F78 %29.88 in10.0 miENE (70°)18.4 mph26.5 mphMostly Cloudy
10:55 PM78.6 °F72.0 °F80 %29.88 in10.0 miENE (70°)17.3 mph25.3 mphMostly Cloudy
11:02 PM78.8 °F71.6 °F78 %29.88 in10.0 miENE (70°)17.3 mphMostly Cloudy
11:08 PM78.8 °F71.6 °F78 %29.88 in10.0 miENE (70°)16.1 mph23.0 mphMostly Cloudy
11:12 PM78.8 °F71.6 °F78 %29.88 in8.0 miEast (80°)18.4 mphRainLight Rain
11:23 PM77.0 °F71.6 °F83 %29.88 in8.0 miENE (70°)16.1 mphMostly Cloudy
11:26 PM77.0 °F71.6 °F83 %29.88 in10.0 miENE (70°)17.3 mphMostly Cloudy
11:27 PM77.0 °F71.6 °F83 %29.88 in10.0 miENE (70°)16.1 mphMostly Cloudy
11:37 PM77.0 °F71.6 °F83 %29.88 in10.0 miENE (70°)18.4 mphScattered Clouds
11:52 PM77.0 °F71.6 °F83 %29.88 in10.0 miENE (70°)18.4 mphMostly Cloudy
11:55 PM77.0 °F71.6 °F83 %29.88 in10.0 miENE (70°)17.3 mphMostly Cloudy
Hourly data recorded from PGUA, located miles away from Merizo, Guam







STORIES FROM OUR PARTNERS